• In Switzerland
  • List of Countries
  • For 7 days
  • Water Temperature
  • Satellite Maps
  • Weather Map
  • Weather Widgets
  • user-avatar
    Login

    Hourly Weather Lubumbashi

    Today, 21 June, Thursday

    Time Temperature Precipitation Wind Pressure Humidity
    00:00 +34°C° 0.6 mm 4 mps 721 mmHg 40%
    01:00 +33°C° 0.6 mm 4 mps 721 mmHg 43%
    02:00 +32°C° 0 mm 5 mps 721 mmHg 46%
    03:00 +32°C° 1 mm 4 mps 721 mmHg 48%
    04:00 +30°C° 1 mm 4 mps 721 mmHg 50%
    05:00 +30°C° 1 mm 4 mps 721 mmHg 52%
    06:00 +30°C° 0.1 mm 4 mps 722 mmHg 49%
    07:00 +32°C° 0.1 mm 4 mps 722 mmHg 47%
    08:00 +33°C° 0.1 mm 5 mps 722 mmHg 44%
    09:00 +34°C° 0 mm 4 mps 722 mmHg 41%
    10:00 +35°C° 0 mm 4 mps 722 mmHg 38%
    11:00 +36°C° 0 mm 3 mps 722 mmHg 35%
    12:00 +37°C° 0 mm 3 mps 722 mmHg 33%
    13:00 +38°C° 0 mm 2 mps 721 mmHg 31%
    14:00 +39°C° 0 mm 1 mps 720 mmHg 28%
    15:00 +39°C° 0 mm 2 mps 720 mmHg 28%
    16:00 +39°C° 0 mm 2 mps 719 mmHg 27%
    17:00 +39°C° 0 mm 3 mps 719 mmHg 26%
    18:00 +39°C° 0 mm 3 mps 719 mmHg 27%
    19:00 +39°C° 0 mm 3 mps 719 mmHg 27%
    20:00 +38°C° 0 mm 3 mps 719 mmHg 28%
    21:00 +38°C° 0 mm 3 mps 720 mmHg 29%
    22:00 +38°C° 0 mm 3 mps 720 mmHg 30%
    23:00 +38°C° 0 mm 3 mps 721 mmHg 31%

    Tomorrow, 22 June, Friday

    Time Temperature Precipitation Wind Pressure Humidity
    00:00 +37°C° 0.3 mm 4 mps 720 mmHg 33%
    01:00 +36°C° 0.3 mm 4 mps 720 mmHg 36%
    02:00 +35°C° 0.3 mm 4 mps 720 mmHg 39%
    03:00 +34°C° 0.1 mm 5 mps 720 mmHg 41%
    04:00 +34°C° 0.1 mm 5 mps 720 mmHg 43%
    05:00 +33°C° 0.1 mm 5 mps 720 mmHg 45%
    06:00 +33°C° 0 mm 5 mps 721 mmHg 44%
    07:00 +34°C° 0 mm 6 mps 721 mmHg 44%
    08:00 +34°C° 0 mm 6 mps 721 mmHg 44%
    09:00 +35°C° 0 mm 6 mps 721 mmHg 40%
    10:00 +36°C° 0 mm 5 mps 721 mmHg 37%
    11:00 +39°C° 0 mm 5 mps 721 mmHg 34%
    12:00 +39°C° 0 mm 5 mps 721 mmHg 32%
    13:00 +40°C° 0 mm 4 mps 720 mmHg 29%
    14:00 +41°C° 0 mm 4 mps 720 mmHg 27%
    15:00 +41°C° 0 mm 4 mps 719 mmHg 27%
    16:00 +40°C° 0 mm 3 mps 719 mmHg 26%
    17:00 +40°C° 0 mm 3 mps 718 mmHg 26%
    18:00 +40°C° 0.1 mm 3 mps 719 mmHg 27%
    19:00 +39°C° 0.1 mm 3 mps 719 mmHg 28%
    20:00 +39°C° 0.1 mm 3 mps 719 mmHg 29%
    21:00 +38°C° 0.2 mm 4 mps 719 mmHg 30%
    22:00 +38°C° 0.2 mm 4 mps 720 mmHg 32%
    23:00 +37°C° 0.2 mm 4 mps 720 mmHg 34%

    Day after tomorrow, 23 June, Saturday

    Time Temperature Precipitation Wind Pressure Humidity
    00:00 +36°C° 0.1 mm 5 mps 720 mmHg 36%
    01:00 +36°C° 0.1 mm 6 mps 719 mmHg 38%
    02:00 +35°C° 0.1 mm 7 mps 719 mmHg 40%
    03:00 +35°C° 0 mm 6 mps 719 mmHg 41%
    04:00 +34°C° 0 mm 6 mps 719 mmHg 43%
    05:00 +34°C° 0 mm 6 mps 719 mmHg 44%
    06:00 +34°C° 0.1 mm 6 mps 719 mmHg 45%
    07:00 +34°C° 0.1 mm 7 mps 720 mmHg 45%
    08:00 +34°C° 0.1 mm 7 mps 720 mmHg 46%
    09:00 +35°C° 0 mm 7 mps 721 mmHg 43%
    10:00 +37°C° 0 mm 8 mps 721 mmHg 40%
    11:00 +38°C° 0 mm 8 mps 721 mmHg 37%
    12:00 +38°C° 0 mm 7 mps 721 mmHg 36%
    13:00 +39°C° 0 mm 6 mps 720 mmHg 35%
    14:00 +39°C° 0 mm 6 mps 719 mmHg 33%
    15:00 +39°C° 0 mm 6 mps 719 mmHg 34%
    16:00 +39°C° 0 mm 6 mps 718 mmHg 34%
    17:00 +39°C° 0 mm 7 mps 718 mmHg 34%
    18:00 +38°C° 0 mm 6 mps 718 mmHg 34%
    19:00 +37°C° 0 mm 5 mps 718 mmHg 35%
    20:00 +37°C° 0 mm 4 mps 718 mmHg 36%
    21:00 +36°C° 0 mm 4 mps 719 mmHg 36%
    22:00 +36°C° 0 mm 3 mps 719 mmHg 37%
    23:00 +36°C° 0 mm 3 mps 719 mmHg 38%

    24 June, Sunday

    Time Temperature Precipitation Wind Pressure Humidity
    00:00 +35°C° 0.5 mm 4 mps 719 mmHg 41%
    01:00 +34°C° 0.5 mm 5 mps 719 mmHg 45%
    02:00 +33°C° 0.5 mm 7 mps 718 mmHg 48%
    03:00 +32°C° 0.2 mm 6 mps 718 mmHg 50%
    04:00 +32°C° 0.2 mm 6 mps 718 mmHg 51%
    05:00 +32°C° 0.2 mm 6 mps 718 mmHg 52%
    06:00 +32°C° 0 mm 6 mps 719 mmHg 51%
    07:00 +32°C° 0 mm 6 mps 719 mmHg 50%
    08:00 +32°C° 0 mm 6 mps 720 mmHg 49%
    09:00 +33°C° 0 mm 6 mps 720 mmHg 46%
    10:00 +34°C° 0 mm 6 mps 720 mmHg 42%
    11:00 +35°C° 0 mm 5 mps 721 mmHg 38%
    12:00 +36°C° 0 mm 5 mps 720 mmHg 36%
    13:00 +37°C° 0 mm 5 mps 719 mmHg 33%
    14:00 +39°C° 0 mm 5 mps 719 mmHg 30%
    15:00 +39°C° 0 mm 5 mps 719 mmHg 29%
    16:00 +40°C° 0 mm 5 mps 718 mmHg 28%
    17:00 +40°C° 0 mm 5 mps 718 mmHg 27%
    18:00 +39°C° 0 mm 5 mps 718 mmHg 28%
    19:00 +38°C° 0 mm 4 mps 718 mmHg 29%
    20:00 +37°C° 0 mm 4 mps 718 mmHg 30%
    21:00 +37°C° 0 mm 5 mps 718 mmHg 33%
    22:00 +36°C° 0 mm 5 mps 719 mmHg 36%
    23:00 +35°C° 0 mm 6 mps 719 mmHg 38%

    25 June, Monday

    Time Temperature Precipitation Wind Pressure Humidity
    00:00 +34°C° 0 mm 6 mps 719 mmHg 41%
    01:00 +34°C° 0 mm 6 mps 718 mmHg 43%
    02:00 +33°C° 0 mm 7 mps 718 mmHg 46%
    03:00 +32°C° 0.2 mm 6 mps 718 mmHg 49%
    04:00 +30°C° 0.2 mm 6 mps 718 mmHg 52%
    05:00 +30°C° 0.2 mm 5 mps 718 mmHg 55%
    06:00 +30°C° 0 mm 5 mps 719 mmHg 53%
    07:00 +32°C° 0 mm 5 mps 719 mmHg 50%
    08:00 +32°C° 0 mm 5 mps 720 mmHg 48%
    09:00 +34°C° 0 mm 5 mps 720 mmHg 43%
    10:00 +35°C° 0 mm 5 mps 720 mmHg 38%
    11:00 +38°C° 0 mm 6 mps 720 mmHg 34%
    12:00 +39°C° 0 mm 5 mps 719 mmHg 31%
    13:00 +38°C° 0 mm 4 mps 719 mmHg 29%
    14:00 +39°C° 0 mm 3 mps 718 mmHg 27%
    15:00 +39°C° 0 mm 3 mps 718 mmHg 26%
    16:00 +39°C° 0 mm 2 mps 717 mmHg 26%
    17:00 +39°C° 0 mm 1 mps 717 mmHg 25%
    18:00 +39°C° 0 mm 2 mps 718 mmHg 26%
    19:00 +39°C° 0 mm 2 mps 718 mmHg 26%
    20:00 +39°C° 0 mm 2 mps 718 mmHg 26%
    21:00 +38°C° 0 mm 2 mps 718 mmHg 27%
    22:00 +38°C° 0 mm 2 mps 719 mmHg 28%
    23:00 +37°C° 0 mm 3 mps 719 mmHg 29%

    26 June, Tuesday

    Time Temperature Precipitation Wind Pressure Humidity
    00:00 +36°C° 0 mm 3 mps 719 mmHg 32%
    01:00 +35°C° 0 mm 4 mps 718 mmHg 34%
    02:00 +35°C° 0 mm 4 mps 718 mmHg 37%
    03:00 +34°C° 0.1 mm 4 mps 718 mmHg 40%
    04:00 +33°C° 0.1 mm 4 mps 718 mmHg 42%
    05:00 +33°C° 0.1 mm 4 mps 718 mmHg 45%
    06:00 +33°C° 0.1 mm 5 mps 719 mmHg 47%
    07:00 +33°C° 0.1 mm 6 mps 719 mmHg 49%
    08:00 +33°C° 0.1 mm 6 mps 720 mmHg 51%
    09:00 +34°C° 0 mm 6 mps 720 mmHg 47%
    10:00 +36°C° 0 mm 5 mps 720 mmHg 43%
    11:00 +37°C° 0 mm 5 mps 720 mmHg 39%
    12:00 +37°C° 0 mm 4 mps 719 mmHg 36%
    13:00 +38°C° 0 mm 2 mps 718 mmHg 33%
    14:00 +39°C° 0 mm 1 mps 718 mmHg 30%
    15:00 +39°C° 0 mm 1 mps 718 mmHg 30%
    16:00 +39°C° 0 mm 1 mps 717 mmHg 29%
    17:00 +39°C° 0 mm 1 mps 717 mmHg 29%
    18:00 +37°C° 0 mm 1 mps 717 mmHg 30%
    19:00 +38°C° 0 mm 2 mps 718 mmHg 31%
    20:00 +38°C° 0 mm 3 mps 718 mmHg 32%
    21:00 +37°C° 0.2 mm 3 mps 718 mmHg 34%
    22:00 +36°C° 0.2 mm 4 mps 718 mmHg 36%
    23:00 +36°C° 0.2 mm 4 mps 719 mmHg 38%
    Show more